Time,TemperatureF,DewpointF,PressureIn,WindDirection,WindDirectionDegrees,WindSpeedMPH,WindSpeedGustMPH,Humidity,HourlyPrecipIn,Conditions,Clouds,dailyrainin,SoftwareType,DateUTC
2013-02-17 00:00:00,20.3,10.8,29.90,East,81,4.0,14.0,66,0.00,,,0.00,Weather View 32 v70,2013-02-17 05:00:00,
2013-02-17 00:01:00,20.4,10.9,29.90,SE,125,2.0,14.0,66,0.00,,,0.00,Weather View 32 v70,2013-02-17 05:01:00,
2013-02-17 00:06:00,20.3,10.4,29.90,South,185,4.0,14.0,65,0.00,,,0.00,Weather View 32 v70,2013-02-17 05:06:00,
2013-02-17 00:11:00,20.2,10.3,29.90,North,9,1.0,14.0,65,0.00,,,0.00,Weather View 32 v70,2013-02-17 05:11:00,
2013-02-17 00:16:00,20.2,10.3,29.90,WNW,293,2.0,14.0,65,0.00,,,0.00,Weather View 32 v70,2013-02-17 05:16:00,
2013-02-17 00:21:00,20.1,10.2,29.91,East,85,4.0,14.0,65,0.00,,,0.00,Weather View 32 v70,2013-02-17 05:21:00,
2013-02-17 00:26:00,20.0,10.5,29.90,WSW,242,1.0,14.0,66,0.00,,,0.00,Weather View 32 v70,2013-02-17 05:26:00,
2013-02-17 00:31:00,19.9,10.0,29.91,NNE,13,4.0,14.0,65,0.00,,,0.00,Weather View 32 v70,2013-02-17 05:31:00,
2013-02-17 00:36:00,19.8,9.9,29.90,SSW,198,10.0,15.0,65,0.00,,,0.00,Weather View 32 v70,2013-02-17 05:36:00,
2013-02-17 00:41:00,19.8,9.2,29.90,WSW,238,4.0,15.0,63,0.00,,,0.00,Weather View 32 v70,2013-02-17 05:41:00,
2013-02-17 00:46:00,19.8,9.2,29.90,NW,321,0.0,15.0,63,0.00,,,0.00,Weather View 32 v70,2013-02-17 05:46:00,
2013-02-17 00:51:00,19.7,8.8,29.90,North,4,6.0,15.0,62,0.00,,,0.00,Weather View 32 v70,2013-02-17 05:51:00,
2013-02-17 00:56:00,19.7,8.8,29.91,SSW,205,2.0,15.0,62,0.00,,,0.00,Weather View 32 v70,2013-02-17 05:56:00,
2013-02-17 01:01:00,19.6,8.7,29.91,South,173,2.0,19.0,62,0.00,,,0.00,Weather View 32 v70,2013-02-17 06:01:00,
2013-02-17 01:06:00,19.5,9.0,29.91,ENE,71,2.0,19.0,63,0.00,,,0.00,Weather View 32 v70,2013-02-17 06:06:00,
2013-02-17 01:11:00,19.4,8.1,29.91,NE,36,1.0,19.0,61,0.00,,,0.00,Weather View 32 v70,2013-02-17 06:11:00,
2013-02-17 01:16:00,19.5,8.6,29.92,ENE,64,4.0,19.0,62,0.00,,,0.00,Weather View 32 v70,2013-02-17 06:16:00,
2013-02-17 01:21:00,19.4,8.1,29.91,North,5,3.0,19.0,61,0.00,,,0.00,Weather View 32 v70,2013-02-17 06:21:00,
2013-02-17 01:26:00,19.3,8.8,29.92,SSW,202,0.0,19.0,63,0.00,,,0.00,Weather View 32 v70,2013-02-17 06:26:00,
2013-02-17 01:31:00,19.2,8.3,29.92,NNE,12,7.0,19.0,62,0.00,,,0.00,Weather View 32 v70,2013-02-17 06:31:00,
2013-02-17 01:36:00,19.2,8.3,29.92,East,87,4.0,19.0,62,0.00,,,0.00,Weather View 32 v70,2013-02-17 06:36:00,
2013-02-17 01:41:00,19.1,8.2,29.92,SE,140,3.0,19.0,62,0.00,,,0.00,Weather View 32 v70,2013-02-17 06:41:00,
2013-02-17 01:46:00,19.0,8.1,29.92,NNE,32,2.0,19.0,62,0.00,,,0.00,Weather View 32 v70,2013-02-17 06:46:00,
2013-02-17 01:51:00,19.0,7.8,29.92,NNW,344,1.0,19.0,61,0.00,,,0.00,Weather View 32 v70,2013-02-17 06:51:00,
2013-02-17 01:56:00,18.9,7.7,29.92,NNE,32,2.0,19.0,61,0.00,,,0.00,Weather View 32 v70,2013-02-17 06:56:00,
2013-02-17 02:01:00,18.9,7.7,29.91,South,171,5.0,15.0,61,0.00,,,0.00,Weather View 32 v70,2013-02-17 07:01:00,
2013-02-17 02:06:00,18.8,7.6,29.92,SE,127,2.0,15.0,61,0.00,,,0.00,Weather View 32 v70,2013-02-17 07:06:00,
2013-02-17 02:11:00,18.9,7.7,29.91,NE,42,1.0,15.0,61,0.00,,,0.00,Weather View 32 v70,2013-02-17 07:11:00,
2013-02-17 02:16:00,18.8,7.6,29.91,North,354,2.0,15.0,61,0.00,,,0.00,Weather View 32 v70,2013-02-17 07:16:00,
2013-02-17 02:21:00,18.7,7.1,29.92,NE,56,6.0,19.0,60,0.00,,,0.00,Weather View 32 v70,2013-02-17 07:21:00,
2013-02-17 02:26:00,18.7,7.1,29.91,WSW,241,1.0,19.0,60,0.00,,,0.00,Weather View 32 v70,2013-02-17 07:26:00,
2013-02-17 02:31:00,18.6,7.0,29.91,SW,221,1.0,19.0,60,0.00,,,0.00,Weather View 32 v70,2013-02-17 07:31:00,
2013-02-17 02:36:00,18.6,7.0,29.92,WSW,248,0.0,19.0,60,0.00,,,0.00,Weather View 32 v70,2013-02-17 07:36:00,
2013-02-17 02:41:00,18.5,7.3,29.91,NNE,13,2.0,19.0,61,0.00,,,0.00,Weather View 32 v70,2013-02-17 07:41:00,
2013-02-17 02:46:00,18.4,7.2,29.92,ENE,59,3.0,19.0,61,0.00,,,0.00,Weather View 32 v70,2013-02-17 07:46:00,
2013-02-17 02:51:00,18.4,6.8,29.92,NNE,24,6.0,21.0,60,0.00,,,0.00,Weather View 32 v70,2013-02-17 07:51:00,
2013-02-17 02:56:00,18.4,7.6,29.92,SSW,208,2.0,21.0,62,0.00,,,0.00,Weather View 32 v70,2013-02-17 07:56:00,
2013-02-17 03:01:00,18.2,7.4,29.92,ENE,71,3.0,21.0,62,0.00,,,0.00,Weather View 32 v70,2013-02-17 08:01:00,
2013-02-17 03:06:00,18.2,7.4,29.93,SW,230,2.0,21.0,62,0.00,,,0.00,Weather View 32 v70,2013-02-17 08:06:00,
2013-02-17 03:11:00,18.2,7.4,29.92,WNW,298,3.0,21.0,62,0.00,,,0.00,Weather View 32 v70,2013-02-17 08:11:00,
2013-02-17 03:16:00,18.2,7.7,29.92,West,268,2.0,21.0,63,0.00,,,0.00,Weather View 32 v70,2013-02-17 08:16:00,
2013-02-17 03:21:00,18.2,8.1,29.92,ENE,61,5.0,21.0,64,0.00,,,0.00,Weather View 32 v70,2013-02-17 08:21:00,
2013-02-17 03:26:00,18.2,7.7,29.92,SSE,151,4.0,21.0,63,0.00,,,0.00,Weather View 32 v70,2013-02-17 08:26:00,
2013-02-17 03:31:00,18.1,7.6,29.92,NE,34,3.0,21.0,63,0.00,,,0.00,Weather View 32 v70,2013-02-17 08:31:00,
2013-02-17 03:36:00,18.0,7.5,29.92,West,267,3.0,21.0,63,0.00,,,0.00,Weather View 32 v70,2013-02-17 08:36:00,
2013-02-17 03:41:00,18.1,7.6,29.93,ESE,123,2.0,21.0,63,0.00,,,0.00,Weather View 32 v70,2013-02-17 08:41:00,
2013-02-17 03:46:00,18.1,7.6,29.92,SSW,207,6.0,21.0,63,0.00,,,0.00,Weather View 32 v70,2013-02-17 08:46:00,
2013-02-17 03:51:00,18.1,8.0,29.92,NNE,23,8.0,16.0,64,0.00,,,0.00,Weather View 32 v70,2013-02-17 08:51:00,
2013-02-17 03:56:00,18.1,8.0,29.92,SE,138,4.0,21.0,64,0.00,,,0.00,Weather View 32 v70,2013-02-17 08:56:00,
2013-02-17 04:01:00,18.0,7.9,29.92,NNW,327,8.0,21.0,64,0.00,,,0.00,Weather View 32 v70,2013-02-17 09:01:00,
2013-02-17 04:06:00,18.0,7.9,29.92,SW,221,8.0,21.0,64,0.00,,,0.00,Weather View 32 v70,2013-02-17 09:06:00,
2013-02-17 04:11:00,18.0,7.9,29.92,NNW,330,8.0,21.0,64,0.00,,,0.00,Weather View 32 v70,2013-02-17 09:11:00,
2013-02-17 04:16:00,18.0,7.9,29.92,SSE,163,5.0,21.0,64,0.00,,,0.00,Weather View 32 v70,2013-02-17 09:16:00,
2013-02-17 04:21:00,18.0,8.2,29.92,East,82,4.0,21.0,65,0.00,,,0.00,Weather View 32 v70,2013-02-17 09:21:00,
2013-02-17 04:26:00,17.9,7.8,29.91,NW,321,3.0,21.0,64,0.00,,,0.00,Weather View 32 v70,2013-02-17 09:26:00,
2013-02-17 04:31:00,17.9,8.1,29.92,NNW,327,7.0,21.0,65,0.00,,,0.00,Weather View 32 v70,2013-02-17 09:31:00,
2013-02-17 04:36:00,17.9,8.1,29.92,WSW,239,4.0,21.0,65,0.00,,,0.00,Weather View 32 v70,2013-02-17 09:36:00,
2013-02-17 04:41:00,17.9,8.1,29.92,South,187,3.0,21.0,65,0.00,,,0.00,Weather View 32 v70,2013-02-17 09:41:00,
2013-02-17 04:46:00,18.0,8.2,29.92,NW,320,2.0,21.0,65,0.00,,,0.00,Weather View 32 v70,2013-02-17 09:46:00,
2013-02-17 04:51:00,17.9,7.8,29.92,East,85,4.0,21.0,64,0.00,,,0.00,Weather View 32 v70,2013-02-17 09:51:00,
2013-02-17 04:56:00,17.9,7.8,29.92,SE,135,10.0,21.0,64,0.00,,,0.00,Weather View 32 v70,2013-02-17 09:56:00,
2013-02-17 05:01:00,17.9,8.1,29.92,WNW,295,9.0,21.0,65,0.00,,,0.00,Weather View 32 v70,2013-02-17 10:01:00,
2013-02-17 05:06:00,17.9,8.1,29.93,SSE,153,5.0,21.0,65,0.00,,,0.00,Weather View 32 v70,2013-02-17 10:06:00,
2013-02-17 05:11:00,17.9,8.1,29.94,SSW,200,2.0,21.0,65,0.00,,,0.00,Weather View 32 v70,2013-02-17 10:11:00,
2013-02-17 05:16:00,17.8,7.7,29.93,SSW,205,8.0,21.0,64,0.00,,,0.00,Weather View 32 v70,2013-02-17 10:16:00,
2013-02-17 05:21:00,17.9,8.1,29.93,WSW,239,3.0,21.0,65,0.00,,,0.00,Weather View 32 v70,2013-02-17 10:21:00,
2013-02-17 05:26:00,17.9,8.1,29.93,SE,131,3.0,21.0,65,0.00,,,0.00,Weather View 32 v70,2013-02-17 10:26:00,
2013-02-17 05:31:00,17.9,8.1,29.94,SW,233,5.0,21.0,65,0.00,,,0.00,Weather View 32 v70,2013-02-17 10:31:00,
2013-02-17 05:36:00,17.9,7.8,29.94,South,190,3.0,21.0,64,0.00,,,0.00,Weather View 32 v70,2013-02-17 10:36:00,
2013-02-17 05:42:00,17.9,7.8,29.94,South,189,3.0,21.0,64,0.00,,,0.00,Weather View 32 v70,2013-02-17 10:42:00,
2013-02-17 05:47:00,17.9,8.1,29.94,WSW,237,6.0,21.0,65,0.00,,,0.00,Weather View 32 v70,2013-02-17 10:47:00,
2013-02-17 05:52:00,18.0,7.5,29.94,SW,233,2.0,21.0,63,0.00,,,0.00,Weather View 32 v70,2013-02-17 10:52:00,
2013-02-17 05:57:00,18.0,7.5,29.94,SE,127,1.0,21.0,63,0.00,,,0.00,Weather View 32 v70,2013-02-17 10:57:00,
2013-02-17 06:02:00,18.0,7.5,29.94,SSE,157,3.0,21.0,63,0.00,,,0.00,Weather View 32 v70,2013-02-17 11:02:00,
2013-02-17 06:07:00,18.0,7.9,29.95,ENE,64,6.0,21.0,64,0.00,,,0.00,Weather View 32 v70,2013-02-17 11:07:00,
2013-02-17 06:12:00,18.1,8.0,29.95,SW,219,6.0,21.0,64,0.00,,,0.00,Weather View 32 v70,2013-02-17 11:12:00,
2013-02-17 06:17:00,18.1,7.6,29.95,SW,234,9.0,21.0,63,0.00,,,0.00,Weather View 32 v70,2013-02-17 11:17:00,
2013-02-17 06:22:00,18.2,7.7,29.95,ESE,110,2.0,21.0,63,0.00,,,0.00,Weather View 32 v70,2013-02-17 11:22:00,
2013-02-17 06:27:00,18.2,7.7,29.95,NE,42,6.0,20.0,63,0.00,,,0.00,Weather View 32 v70,2013-02-17 11:27:00,
2013-02-17 06:32:00,18.2,8.1,29.95,SW,217,1.0,20.0,64,0.00,,,0.00,Weather View 32 v70,2013-02-17 11:32:00,
2013-02-17 06:37:00,18.2,8.1,29.96,NNW,341,0.0,20.0,64,0.00,,,0.00,Weather View 32 v70,2013-02-17 11:37:00,
2013-02-17 06:42:00,18.3,7.8,29.96,South,177,0.0,15.0,63,0.00,,,0.00,Weather View 32 v70,2013-02-17 11:42:00,
2013-02-17 06:47:00,18.4,7.9,29.96,NNE,22,3.0,17.0,63,0.00,,,0.00,Weather View 32 v70,2013-02-17 11:47:00,
2013-02-17 06:52:00,18.4,7.9,29.96,WSW,247,5.0,17.0,63,0.00,,,0.00,Weather View 32 v70,2013-02-17 11:52:00,
2013-02-17 06:57:00,18.5,8.0,29.96,SSE,148,3.0,17.0,63,0.00,,,0.00,Weather View 32 v70,2013-02-17 11:57:00,
2013-02-17 07:02:00,18.5,8.0,29.96,East,91,1.0,17.0,63,0.00,,,0.00,Weather View 32 v70,2013-02-17 12:02:00,
2013-02-17 07:07:00,18.5,8.0,29.96,North,8,1.0,17.0,63,0.00,,,0.00,Weather View 32 v70,2013-02-17 12:07:00,
2013-02-17 07:12:00,18.6,8.1,29.97,NNW,341,2.0,17.0,63,0.00,,,0.00,Weather View 32 v70,2013-02-17 12:12:00,
2013-02-17 07:17:00,18.6,8.1,29.97,East,92,5.0,17.0,63,0.00,,,0.00,Weather View 32 v70,2013-02-17 12:17:00,
2013-02-17 07:22:00,18.7,8.2,29.97,SSW,194,6.0,17.0,63,0.00,,,0.00,Weather View 32 v70,2013-02-17 12:22:00,
2013-02-17 07:27:00,18.7,7.8,29.98,NNE,14,6.0,26.0,62,0.00,,,0.00,Weather View 32 v70,2013-02-17 12:27:00,
2013-02-17 07:32:00,18.7,8.2,29.97,WSW,245,8.0,26.0,63,0.00,,,0.00,Weather View 32 v70,2013-02-17 12:32:00,
2013-02-17 07:37:00,18.7,7.8,29.97,SE,126,5.0,26.0,62,0.00,,,0.00,Weather View 32 v70,2013-02-17 12:37:00,
2013-02-17 07:42:00,18.7,8.2,29.98,SW,232,5.0,26.0,63,0.00,,,0.00,Weather View 32 v70,2013-02-17 12:42:00,
2013-02-17 07:47:00,18.7,8.2,29.98,SE,129,2.0,26.0,63,0.00,,,0.00,Weather View 32 v70,2013-02-17 12:47:00,
2013-02-17 07:52:00,18.7,8.5,29.99,SSW,201,2.0,26.0,64,0.00,,,0.00,Weather View 32 v70,2013-02-17 12:52:00,
2013-02-17 07:57:00,18.8,8.3,29.99,NE,56,1.0,26.0,63,0.00,,,0.00,Weather View 32 v70,2013-02-17 12:57:00,
2013-02-17 08:02:00,18.7,8.5,29.99,NNE,28,5.0,26.0,64,0.00,,,0.00,Weather View 32 v70,2013-02-17 13:02:00,
2013-02-17 08:07:00,18.6,8.5,29.99,NNE,21,9.0,26.0,64,0.00,,,0.00,Weather View 32 v70,2013-02-17 13:07:00,
2013-02-17 08:12:00,18.7,8.9,29.99,ESE,112,0.0,26.0,65,0.00,,,0.00,Weather View 32 v70,2013-02-17 13:12:00,
2013-02-17 08:17:00,18.5,8.7,29.99,SW,222,9.0,26.0,65,0.00,,,0.00,Weather View 32 v70,2013-02-17 13:17:00,
2013-02-17 08:22:00,18.6,8.8,29.99,SW,217,5.0,26.0,65,0.00,,,0.00,Weather View 32 v70,2013-02-17 13:22:00,
2013-02-17 08:27:00,18.6,8.8,29.99,SW,220,4.0,22.0,65,0.00,,,0.00,Weather View 32 v70,2013-02-17 13:27:00,
2013-02-17 08:32:00,18.7,8.9,30.00,ESE,105,5.0,14.0,65,0.00,,,0.00,Weather View 32 v70,2013-02-17 13:32:00,
2013-02-17 08:37:00,18.8,9.3,30.00,West,261,3.0,14.0,66,0.00,,,0.00,Weather View 32 v70,2013-02-17 13:37:00,
2013-02-17 08:42:00,18.9,9.1,30.00,NNE,20,5.0,14.0,65,0.00,,,0.00,Weather View 32 v70,2013-02-17 13:42:00,
2013-02-17 08:47:00,19.0,9.2,30.00,WSW,250,3.0,13.0,65,0.00,,,0.00,Weather View 32 v70,2013-02-17 13:47:00,
2013-02-17 08:52:00,19.2,9.4,30.01,SSW,197,2.0,13.0,65,0.00,,,0.00,Weather View 32 v70,2013-02-17 13:52:00,
2013-02-17 08:57:00,19.4,9.2,30.01,SSW,202,4.0,11.0,64,0.00,,,0.00,Weather View 32 v70,2013-02-17 13:57:00,
2013-02-17 09:02:00,19.6,9.4,30.01,SW,215,5.0,11.0,64,0.00,,,0.00,Weather View 32 v70,2013-02-17 14:02:00,
2013-02-17 09:07:00,19.6,9.4,30.01,WSW,244,3.0,11.0,64,0.00,,,0.00,Weather View 32 v70,2013-02-17 14:07:00,
2013-02-17 09:12:00,19.9,10.0,30.01,ENE,75,2.0,11.0,65,0.00,,,0.00,Weather View 32 v70,2013-02-17 14:12:00,
2013-02-17 09:17:00,20.1,9.9,30.02,NW,307,3.0,11.0,64,0.00,,,0.00,Weather View 32 v70,2013-02-17 14:17:00,
2013-02-17 09:22:00,20.3,9.7,30.01,ENE,57,4.0,16.0,63,0.00,,,0.00,Weather View 32 v70,2013-02-17 14:22:00,
2013-02-17 09:27:00,20.5,9.9,30.02,WNW,295,2.0,16.0,63,0.00,,,0.00,Weather View 32 v70,2013-02-17 14:27:00,
2013-02-17 09:32:00,20.6,10.0,30.02,SSE,164,5.0,29.0,63,0.00,,,0.00,Weather View 32 v70,2013-02-17 14:32:00,
2013-02-17 09:37:00,20.7,9.7,30.01,ENE,67,4.0,29.0,62,0.00,,,0.00,Weather View 32 v70,2013-02-17 14:37:00,
2013-02-17 09:42:00,20.9,9.9,30.01,NNW,348,1.0,29.0,62,0.00,,,0.00,Weather View 32 v70,2013-02-17 14:42:00,
2013-02-17 09:47:00,21.3,10.3,30.01,NE,46,3.0,29.0,62,0.00,,,0.00,Weather View 32 v70,2013-02-17 14:47:00,
2013-02-17 09:52:00,21.5,10.1,30.01,ESE,123,5.0,29.0,61,0.00,,,0.00,Weather View 32 v70,2013-02-17 14:52:00,
2013-02-17 09:57:00,21.5,9.4,30.01,SE,134,4.0,29.0,59,0.00,,,0.00,Weather View 32 v70,2013-02-17 14:57:00,
2013-02-17 10:02:00,21.6,9.9,30.01,NNW,328,4.0,29.0,60,0.00,,,0.00,Weather View 32 v70,2013-02-17 15:02:00,
2013-02-17 10:07:00,21.9,10.5,30.01,SE,143,2.0,29.0,61,0.00,,,0.00,Weather View 32 v70,2013-02-17 15:07:00,
2013-02-17 10:12:00,22.1,10.0,30.01,ESE,104,2.0,29.0,59,0.00,,,0.00,Weather View 32 v70,2013-02-17 15:12:00,
2013-02-17 10:17:00,22.3,9.8,30.02,SE,135,7.0,29.0,58,0.00,,,0.00,Weather View 32 v70,2013-02-17 15:17:00,
2013-02-17 10:23:00,22.5,9.9,30.02,ENE,65,3.0,29.0,58,0.00,,,0.00,Weather View 32 v70,2013-02-17 15:23:00,
2013-02-17 10:28:00,22.7,9.7,30.02,SW,224,8.0,29.0,57,0.00,,,0.00,Weather View 32 v70,2013-02-17 15:28:00,
2013-02-17 10:33:00,23.0,10.4,30.03,ENE,70,2.0,19.0,58,0.00,,,0.00,Weather View 32 v70,2013-02-17 15:33:00,
2013-02-17 10:38:00,23.3,10.7,30.03,WSW,253,4.0,19.0,58,0.00,,,0.00,Weather View 32 v70,2013-02-17 15:38:00,
2013-02-17 10:43:00,23.5,10.1,30.04,SE,133,4.0,19.0,56,0.00,,,0.00,Weather View 32 v70,2013-02-17 15:43:00,
2013-02-17 10:48:00,23.7,10.3,30.04,South,182,0.0,19.0,56,0.00,,,0.00,Weather View 32 v70,2013-02-17 15:48:00,
2013-02-17 10:53:00,24.2,10.8,30.04,North,10,2.0,19.0,56,0.00,,,0.00,Weather View 32 v70,2013-02-17 15:53:00,
2013-02-17 10:58:00,24.6,10.7,30.03,NNE,15,4.0,19.0,55,0.00,,,0.00,Weather View 32 v70,2013-02-17 15:58:00,
2013-02-17 11:03:00,24.8,10.1,30.05,NE,56,5.0,18.0,53,0.00,,,0.00,Weather View 32 v70,2013-02-17 16:03:00,
2013-02-17 11:08:00,24.8,8.8,30.04,ESE,121,3.0,17.0,50,0.00,,,0.00,Weather View 32 v70,2013-02-17 16:08:00,
2013-02-17 11:13:00,25.3,9.7,30.04,NE,47,11.0,17.0,51,0.00,,,0.00,Weather View 32 v70,2013-02-17 16:13:00,
2013-02-17 11:18:00,25.3,9.3,30.05,SSW,204,5.0,19.0,50,0.00,,,0.00,Weather View 32 v70,2013-02-17 16:18:00,
2013-02-17 11:23:00,25.5,9.0,30.04,SW,217,1.0,19.0,49,0.00,,,0.00,Weather View 32 v70,2013-02-17 16:23:00,
2013-02-17 11:28:00,25.7,9.2,30.04,South,189,2.0,19.0,49,0.00,,,0.00,Weather View 32 v70,2013-02-17 16:28:00,
2013-02-17 11:33:00,26.1,9.1,30.04,NW,308,6.0,19.0,48,0.00,,,0.00,Weather View 32 v70,2013-02-17 16:33:00,
2013-02-17 11:38:00,26.0,8.0,30.04,East,96,5.0,19.0,46,0.00,,,0.00,Weather View 32 v70,2013-02-17 16:38:00,
2013-02-17 11:43:00,27.0,9.4,30.04,WSW,249,3.0,22.0,47,0.00,,,0.00,Weather View 32 v70,2013-02-17 16:43:00,
2013-02-17 11:48:00,27.3,9.7,30.04,NNE,14,8.0,22.0,47,0.00,,,0.00,Weather View 32 v70,2013-02-17 16:48:00,
2013-02-17 11:53:00,27.4,8.8,30.03,ENE,70,2.0,22.0,45,0.00,,,0.00,Weather View 32 v70,2013-02-17 16:53:00,
2013-02-17 11:58:00,27.7,9.6,30.04,ESE,118,0.0,22.0,46,0.00,,,0.00,Weather View 32 v70,2013-02-17 16:58:00,
2013-02-17 12:03:00,28.0,8.9,30.03,ESE,123,3.0,22.0,44,0.00,,,0.00,Weather View 32 v70,2013-02-17 17:03:00,
2013-02-17 12:08:00,28.1,8.5,30.03,South,190,5.0,22.0,43,0.00,,,0.00,Weather View 32 v70,2013-02-17 17:08:00,
2013-02-17 12:13:00,28.4,9.3,30.03,West,271,7.0,22.0,44,0.00,,,0.00,Weather View 32 v70,2013-02-17 17:13:00,
2013-02-17 12:18:00,28.4,8.2,30.03,ESE,121,8.0,22.0,42,0.00,,,0.00,Weather View 32 v70,2013-02-17 17:18:00,
2013-02-17 12:23:00,28.7,8.5,30.04,SW,219,1.0,22.0,42,0.00,,,0.00,Weather View 32 v70,2013-02-17 17:23:00,
2013-02-17 12:28:00,29.0,8.8,30.03,SW,222,5.0,22.0,42,0.00,,,0.00,Weather View 32 v70,2013-02-17 17:28:00,
2013-02-17 12:33:00,29.4,9.1,30.03,NW,307,3.0,22.0,42,0.00,,,0.00,Weather View 32 v70,2013-02-17 17:33:00,
2013-02-17 12:38:00,29.2,7.3,30.03,WSW,238,7.0,22.0,39,0.00,,,0.00,Weather View 32 v70,2013-02-17 17:38:00,
2013-02-17 12:43:00,29.7,8.3,30.03,SW,229,1.0,19.0,40,0.00,,,0.00,Weather View 32 v70,2013-02-17 17:43:00,
2013-02-17 12:48:00,29.7,8.3,30.03,ENE,69,3.0,19.0,40,0.00,,,0.00,Weather View 32 v70,2013-02-17 17:48:00,
2013-02-17 12:53:00,29.7,7.8,30.03,SW,216,1.0,19.0,39,0.00,,,0.00,Weather View 32 v70,2013-02-17 17:53:00,
2013-02-17 12:58:00,29.7,7.2,30.02,NE,39,2.0,19.0,38,0.00,,,0.00,Weather View 32 v70,2013-02-17 17:58:00,
2013-02-17 13:03:00,30.0,8.6,30.02,SSE,162,3.0,19.0,40,0.00,,,0.00,Weather View 32 v70,2013-02-17 18:03:00,
2013-02-17 13:08:00,30.0,8.0,30.03,ENE,68,3.0,16.0,39,0.00,,,0.00,Weather View 32 v70,2013-02-17 18:08:00,
2013-02-17 13:13:00,30.5,9.0,30.02,North,9,2.0,16.0,40,0.00,,,0.00,Weather View 32 v70,2013-02-17 18:13:00,
2013-02-17 13:18:00,30.5,8.5,30.02,NNW,345,2.0,16.0,39,0.00,,,0.00,Weather View 32 v70,2013-02-17 18:18:00,
2013-02-17 13:24:00,30.4,7.2,30.02,NNW,343,13.0,16.0,37,0.00,,,0.00,Weather View 32 v70,2013-02-17 18:24:00,
2013-02-17 13:29:00,30.7,8.1,30.03,East,79,5.0,16.0,38,0.00,,,0.00,Weather View 32 v70,2013-02-17 18:29:00,
2013-02-17 13:34:00,31.5,9.4,30.02,SE,138,3.0,16.0,39,0.00,,,0.00,Weather View 32 v70,2013-02-17 18:34:00,
2013-02-17 13:39:00,31.7,8.4,30.02,SW,225,8.0,16.0,37,0.00,,,0.00,Weather View 32 v70,2013-02-17 18:39:00,
2013-02-17 13:44:00,31.8,9.1,30.02,SSW,213,4.0,16.0,38,0.00,,,0.00,Weather View 32 v70,2013-02-17 18:44:00,
2013-02-17 13:49:00,32.1,9.3,30.02,East,86,2.0,15.0,38,0.00,,,0.00,Weather View 32 v70,2013-02-17 18:49:00,
2013-02-17 13:54:00,31.7,8.4,30.02,ESE,113,5.0,15.0,37,0.00,,,0.00,Weather View 32 v70,2013-02-17 18:54:00,
2013-02-17 13:59:00,31.7,9.0,30.02,NNW,344,4.0,15.0,38,0.00,,,0.00,Weather View 32 v70,2013-02-17 18:59:00,
2013-02-17 14:04:00,32.4,9.0,30.02,SE,130,2.0,15.0,37,0.00,,,0.00,Weather View 32 v70,2013-02-17 19:04:00,
2013-02-17 14:09:00,33.3,10.4,30.02,NE,52,2.0,14.0,38,0.00,,,0.00,Weather View 32 v70,2013-02-17 19:09:00,
2013-02-17 14:14:00,33.4,9.9,30.02,ESE,117,2.0,14.0,37,0.00,,,0.00,Weather View 32 v70,2013-02-17 19:14:00,
2013-02-17 14:19:00,33.5,9.4,30.02,East,85,3.0,14.0,36,0.00,,,0.00,Weather View 32 v70,2013-02-17 19:19:00,
2013-02-17 14:24:00,33.3,9.8,30.03,NE,34,5.0,14.0,37,0.00,,,0.00,Weather View 32 v70,2013-02-17 19:24:00,
2013-02-17 14:29:00,33.0,9.5,30.02,SE,136,2.0,14.0,37,0.00,,,0.00,Weather View 32 v70,2013-02-17 19:29:00,
2013-02-17 14:34:00,32.7,9.3,30.02,SW,215,8.0,17.0,37,0.00,,,0.00,Weather View 32 v70,2013-02-17 19:34:00,
2013-02-17 14:39:00,32.8,9.4,30.02,SW,226,1.0,17.0,37,0.00,,,0.00,Weather View 32 v70,2013-02-17 19:39:00,
2013-02-17 14:44:00,33.3,9.8,30.03,SW,218,4.0,17.0,37,0.00,,,0.00,Weather View 32 v70,2013-02-17 19:44:00,
2013-02-17 14:49:00,33.1,9.0,30.02,NE,47,1.0,17.0,36,0.00,,,0.00,Weather View 32 v70,2013-02-17 19:49:00,
2013-02-17 14:54:00,33.3,9.8,30.02,ENE,69,2.0,17.0,37,0.00,,,0.00,Weather View 32 v70,2013-02-17 19:54:00,
2013-02-17 14:59:00,33.4,9.9,30.03,North,7,5.0,17.0,37,0.00,,,0.00,Weather View 32 v70,2013-02-17 19:59:00,
2013-02-17 15:05:00,32.8,9.4,30.02,NNE,18,4.0,17.0,37,0.00,,,0.00,Weather View 32 v70,2013-02-17 20:05:00,
2013-02-17 15:10:00,33.2,9.7,30.03,NNW,348,6.0,17.0,37,0.00,,,0.00,Weather View 32 v70,2013-02-17 20:10:00,
2013-02-17 15:15:00,32.8,9.4,30.04,SSE,151,4.0,17.0,37,0.00,,,0.00,Weather View 32 v70,2013-02-17 20:15:00,
2013-02-17 15:20:00,33.0,9.5,30.02,SE,135,2.0,17.0,37,0.00,,,0.00,Weather View 32 v70,2013-02-17 20:20:00,
2013-02-17 15:25:00,33.3,9.2,30.03,East,92,5.0,17.0,36,0.00,,,0.00,Weather View 32 v70,2013-02-17 20:25:00,
2013-02-17 15:30:00,33.5,10.0,30.03,NE,41,4.0,17.0,37,0.00,,,0.00,Weather View 32 v70,2013-02-17 20:30:00,
2013-02-17 15:35:00,33.6,9.5,30.02,ENE,77,3.0,15.0,36,0.00,,,0.00,Weather View 32 v70,2013-02-17 20:35:00,
2013-02-17 15:40:00,34.1,9.9,30.02,NW,317,2.0,15.0,36,0.00,,,0.00,Weather View 32 v70,2013-02-17 20:40:00,
2013-02-17 15:45:00,33.2,9.1,30.02,NNW,346,9.0,15.0,36,0.00,,,0.00,Weather View 32 v70,2013-02-17 20:45:00,
2013-02-17 15:50:00,33.9,10.3,30.02,East,100,2.0,15.0,37,0.00,,,0.00,Weather View 32 v70,2013-02-17 20:50:00,
2013-02-17 15:55:00,34.1,10.5,30.02,WNW,298,1.0,15.0,37,0.00,,,0.00,Weather View 32 v70,2013-02-17 20:55:00,
2013-02-17 16:00:00,34.7,10.4,30.03,ENE,75,0.0,15.0,36,0.00,,,0.00,Weather View 32 v70,2013-02-17 21:00:00,
2013-02-17 16:05:00,34.2,10.0,30.02,West,274,2.0,15.0,36,0.00,,,0.00,Weather View 32 v70,2013-02-17 21:05:00,
2013-02-17 16:10:00,33.2,9.1,30.02,North,7,8.0,15.0,36,0.00,,,0.00,Weather View 32 v70,2013-02-17 21:10:00,
2013-02-17 16:15:00,33.4,9.9,30.02,SSE,148,1.0,14.0,37,0.00,,,0.00,Weather View 32 v70,2013-02-17 21:15:00,
2013-02-17 16:20:00,33.6,10.7,30.03,NNW,329,3.0,13.0,38,0.00,,,0.00,Weather View 32 v70,2013-02-17 21:20:00,
2013-02-17 16:25:00,33.5,10.6,30.03,SE,139,1.0,13.0,38,0.00,,,0.00,Weather View 32 v70,2013-02-17 21:25:00,
2013-02-17 16:30:00,33.6,10.7,30.03,SW,214,5.0,13.0,38,0.00,,,0.00,Weather View 32 v70,2013-02-17 21:30:00,
2013-02-17 16:35:00,33.5,10.6,30.04,SW,227,2.0,13.0,38,0.00,,,0.00,Weather View 32 v70,2013-02-17 21:35:00,
2013-02-17 16:40:00,33.7,10.8,30.03,SSW,210,6.0,13.0,38,0.00,,,0.00,Weather View 32 v70,2013-02-17 21:40:00,
2013-02-17 16:45:00,33.5,11.2,30.04,SSW,212,0.0,13.0,39,0.00,,,0.00,Weather View 32 v70,2013-02-17 21:45:00,
2013-02-17 16:50:00,33.4,11.1,30.04,ESE,106,2.0,13.0,39,0.00,,,0.00,Weather View 32 v70,2013-02-17 21:50:00,
2013-02-17 16:55:00,33.1,10.2,30.04,SSW,201,2.0,13.0,38,0.00,,,0.00,Weather View 32 v70,2013-02-17 21:55:00,
2013-02-17 17:00:00,33.2,10.3,30.04,SW,221,2.0,13.0,38,0.00,,,0.00,Weather View 32 v70,2013-02-17 22:00:00,
2013-02-17 17:05:00,33.5,11.2,30.04,ENE,68,0.0,13.0,39,0.00,,,0.00,Weather View 32 v70,2013-02-17 22:05:00,
2013-02-17 17:10:00,33.2,10.9,30.04,NNE,21,5.0,12.0,39,0.00,,,0.00,Weather View 32 v70,2013-02-17 22:10:00,
2013-02-17 17:15:00,32.9,10.6,30.05,SW,224,2.0,12.0,39,0.00,,,0.00,Weather View 32 v70,2013-02-17 22:15:00,
2013-02-17 17:20:00,32.9,12.3,30.04,SW,223,0.0,12.0,42,0.00,,,0.00,Weather View 32 v70,2013-02-17 22:20:00,
2013-02-17 17:25:00,32.9,11.2,30.05,WSW,248,0.0,12.0,40,0.00,,,0.00,Weather View 32 v70,2013-02-17 22:25:00,
2013-02-17 17:30:00,33.0,11.3,30.05,NNE,27,0.0,12.0,40,0.00,,,0.00,Weather View 32 v70,2013-02-17 22:30:00,
2013-02-17 17:35:00,32.9,11.8,30.06,South,174,1.0,12.0,41,0.00,,,0.00,Weather View 32 v70,2013-02-17 22:35:00,
2013-02-17 17:40:00,32.6,10.9,30.06,SSW,209,3.0,12.0,40,0.00,,,0.00,Weather View 32 v70,2013-02-17 22:40:00,
2013-02-17 17:45:00,32.3,11.2,30.06,SSW,196,1.0,12.0,41,0.00,,,0.00,Weather View 32 v70,2013-02-17 22:45:00,
2013-02-17 17:50:00,32.0,10.9,30.06,SSW,196,0.0,12.0,41,0.00,,,0.00,Weather View 32 v70,2013-02-17 22:50:00,
2013-02-17 17:55:00,31.8,11.3,30.06,ENE,58,1.0,12.0,42,0.00,,,0.00,Weather View 32 v70,2013-02-17 22:55:00,
2013-02-17 18:00:00,31.3,10.8,30.07,WSW,253,4.0,12.0,42,0.00,,,0.00,Weather View 32 v70,2013-02-17 23:00:00,
2013-02-17 18:05:00,31.0,11.6,30.07,SW,216,2.0,12.0,44,0.00,,,0.00,Weather View 32 v70,2013-02-17 23:05:00,
2013-02-17 18:10:00,30.8,11.4,30.07,SW,221,0.0,12.0,44,0.00,,,0.00,Weather View 32 v70,2013-02-17 23:10:00,
2013-02-17 18:15:00,30.7,11.3,30.06,NNE,17,0.0,7.0,44,0.00,,,0.00,Weather View 32 v70,2013-02-17 23:15:00,
2013-02-17 18:20:00,30.4,11.6,30.07,South,172,4.0,7.0,45,0.00,,,0.00,Weather View 32 v70,2013-02-17 23:20:00,
2013-02-17 18:25:00,30.4,11.6,30.07,SSW,200,0.0,7.0,45,0.00,,,0.00,Weather View 32 v70,2013-02-17 23:25:00,
2013-02-17 18:30:00,30.1,11.8,30.07,SSE,156,1.0,7.0,46,0.00,,,0.00,Weather View 32 v70,2013-02-17 23:30:00,
2013-02-17 18:36:00,29.9,12.1,30.07,SE,142,5.0,7.0,47,0.00,,,0.00,Weather View 32 v70,2013-02-17 23:36:00,
2013-02-17 18:41:00,29.8,11.5,30.07,East,98,0.0,7.0,46,0.00,,,0.00,Weather View 32 v70,2013-02-17 23:41:00,
2013-02-17 18:46:00,29.6,12.3,30.08,ESE,109,0.0,7.0,48,0.00,,,0.00,Weather View 32 v70,2013-02-17 23:46:00,
2013-02-17 18:51:00,29.2,12.9,30.08,SSW,213,2.0,7.0,50,0.00,,,0.00,Weather View 32 v70,2013-02-17 23:51:00,
2013-02-17 18:56:00,28.8,12.0,30.08,SE,136,0.0,7.0,49,0.00,,,0.00,Weather View 32 v70,2013-02-17 23:56:00,
2013-02-17 19:01:00,28.6,13.6,30.08,SW,215,0.0,7.0,53,0.00,,,0.00,Weather View 32 v70,2013-02-18 00:01:00,
2013-02-17 19:06:00,28.9,12.1,30.09,ENE,75,2.0,9.0,49,0.00,,,0.00,Weather View 32 v70,2013-02-18 00:06:00,
2013-02-17 19:11:00,29.0,12.7,30.09,NE,41,1.0,9.0,50,0.00,,,0.00,Weather View 32 v70,2013-02-18 00:11:00,
2013-02-17 19:16:00,28.7,14.1,30.09,SSW,212,1.0,9.0,54,0.00,,,0.00,Weather View 32 v70,2013-02-18 00:16:00,
2013-02-17 19:21:00,28.3,13.8,30.09,SSW,211,0.0,9.0,54,0.00,,,0.00,Weather View 32 v70,2013-02-18 00:21:00,
2013-02-17 19:26:00,28.2,13.3,30.09,SW,236,1.0,9.0,53,0.00,,,0.00,Weather View 32 v70,2013-02-18 00:26:00,
2013-02-17 19:31:00,28.2,13.7,30.09,SW,231,0.0,9.0,54,0.00,,,0.00,Weather View 32 v70,2013-02-18 00:31:00,
2013-02-17 19:36:00,28.1,14.0,30.09,SSW,192,0.0,9.0,55,0.00,,,0.00,Weather View 32 v70,2013-02-18 00:36:00,
2013-02-17 19:41:00,27.9,13.4,30.09,SSW,205,1.0,9.0,54,0.00,,,0.00,Weather View 32 v70,2013-02-18 00:41:00,
2013-02-17 19:46:00,27.7,14.0,30.09,SSW,205,0.0,9.0,56,0.00,,,0.00,Weather View 32 v70,2013-02-18 00:46:00,
2013-02-17 19:51:00,27.6,13.9,30.09,SW,226,0.0,9.0,56,0.00,,,0.00,Weather View 32 v70,2013-02-18 00:51:00,
2013-02-17 19:56:00,27.4,14.9,30.09,SSW,192,0.0,9.0,59,0.00,,,0.00,Weather View 32 v70,2013-02-18 00:56:00,
2013-02-17 20:01:00,27.2,13.2,30.09,ESE,117,1.0,9.0,55,0.00,,,0.00,Weather View 32 v70,2013-02-18 01:01:00,
2013-02-17 20:06:00,27.1,13.9,30.09,SW,214,2.0,5.0,57,0.00,,,0.00,Weather View 32 v70,2013-02-18 01:06:00,
2013-02-17 20:11:00,27.0,14.6,30.09,SW,214,0.0,4.0,59,0.00,,,0.00,Weather View 32 v70,2013-02-18 01:11:00,
2013-02-17 20:16:00,27.1,13.5,30.09,North,354,2.0,4.0,56,0.00,,,0.00,Weather View 32 v70,2013-02-18 01:16:00,
2013-02-17 20:21:00,27.0,14.6,30.10,NNW,340,0.0,4.0,59,0.00,,,0.00,Weather View 32 v70,2013-02-18 01:21:00,
2013-02-17 20:26:00,26.9,14.9,30.10,NNW,340,0.0,3.0,60,0.00,,,0.00,Weather View 32 v70,2013-02-18 01:26:00,
2013-02-17 20:31:00,26.8,13.6,30.10,NW,324,0.0,3.0,57,0.00,,,0.00,Weather View 32 v70,2013-02-18 01:31:00,
2013-02-17 20:36:00,26.5,15.2,30.10,SW,215,3.0,3.0,62,0.00,,,0.00,Weather View 32 v70,2013-02-18 01:36:00,
2013-02-17 20:41:00,26.4,14.4,30.10,SE,141,1.0,4.0,60,0.00,,,0.00,Weather View 32 v70,2013-02-18 01:41:00,
2013-02-17 20:46:00,26.4,14.8,30.10,East,85,0.0,4.0,61,0.00,,,0.00,Weather View 32 v70,2013-02-18 01:46:00,
2013-02-17 20:51:00,26.3,15.0,30.10,SSE,148,1.0,4.0,62,0.00,,,0.00,Weather View 32 v70,2013-02-18 01:51:00,
2013-02-17 20:56:00,26.2,14.6,30.11,WSW,247,0.0,4.0,61,0.00,,,0.00,Weather View 32 v70,2013-02-18 01:56:00,
2013-02-17 21:01:00,26.0,15.5,30.11,WSW,247,0.0,4.0,64,0.00,,,0.00,Weather View 32 v70,2013-02-18 02:01:00,
2013-02-17 21:06:00,25.7,14.8,30.11,WSW,246,1.0,4.0,63,0.00,,,0.00,Weather View 32 v70,2013-02-18 02:06:00,
2013-02-17 21:11:00,25.5,15.4,30.11,WSW,246,0.0,4.0,65,0.00,,,0.00,Weather View 32 v70,2013-02-18 02:11:00,
2013-02-17 21:16:00,25.2,15.1,30.11,WSW,246,0.0,4.0,65,0.00,,,0.00,Weather View 32 v70,2013-02-18 02:16:00,
2013-02-17 21:21:00,25.0,15.6,30.12,WSW,246,0.0,4.0,67,0.00,,,0.00,Weather View 32 v70,2013-02-18 02:21:00,
2013-02-17 21:27:00,24.8,15.4,30.12,WSW,246,0.0,4.0,67,0.00,,,0.00,Weather View 32 v70,2013-02-18 02:27:00,
2013-02-17 21:32:00,24.7,15.0,30.12,WSW,245,0.0,4.0,66,0.00,,,0.00,Weather View 32 v70,2013-02-18 02:32:00,
2013-02-17 21:37:00,24.6,14.9,30.12,WSW,245,0.0,4.0,66,0.00,,,0.00,Weather View 32 v70,2013-02-18 02:37:00,
2013-02-17 21:42:00,24.6,14.5,30.12,WSW,245,0.0,2.0,65,0.00,,,0.00,Weather View 32 v70,2013-02-18 02:42:00,
2013-02-17 21:47:00,24.5,14.8,30.12,WSW,245,0.0,2.0,66,0.00,,,0.00,Weather View 32 v70,2013-02-18 02:47:00,
2013-02-17 21:52:00,24.4,15.7,30.13,SW,223,1.0,2.0,69,0.00,,,0.00,Weather View 32 v70,2013-02-18 02:52:00,
2013-02-17 21:57:00,24.3,15.6,30.13,SW,223,0.0,2.0,69,0.00,,,0.00,Weather View 32 v70,2013-02-18 02:57:00,
2013-02-17 22:02:00,24.1,15.7,30.12,SW,224,1.0,2.0,70,0.00,,,0.00,Weather View 32 v70,2013-02-18 03:02:00,
2013-02-17 22:07:00,24.0,15.3,30.12,SW,224,0.0,2.0,69,0.00,,,0.00,Weather View 32 v70,2013-02-18 03:07:00,
2013-02-17 22:12:00,24.0,16.0,30.12,SW,224,0.0,2.0,71,0.00,,,0.00,Weather View 32 v70,2013-02-18 03:12:00,
2013-02-17 22:17:00,23.8,15.4,30.12,SW,224,0.0,2.0,70,0.00,,,0.00,Weather View 32 v70,2013-02-18 03:17:00,
2013-02-17 22:22:00,23.7,14.7,30.12,SW,224,0.0,2.0,68,0.00,,,0.00,Weather View 32 v70,2013-02-18 03:22:00,
2013-02-17 22:27:00,23.6,14.9,30.13,SW,224,0.0,2.0,69,0.00,,,0.00,Weather View 32 v70,2013-02-18 03:27:00,
2013-02-17 22:32:00,23.6,14.6,30.13,SW,223,0.0,2.0,68,0.00,,,0.00,Weather View 32 v70,2013-02-18 03:32:00,
2013-02-17 22:37:00,23.5,16.1,30.13,SW,219,1.0,2.0,73,0.00,,,0.00,Weather View 32 v70,2013-02-18 03:37:00,
2013-02-17 22:42:00,23.4,15.4,30.13,SW,220,0.0,2.0,71,0.00,,,0.00,Weather View 32 v70,2013-02-18 03:42:00,
2013-02-17 22:47:00,23.5,16.1,30.13,SW,220,2.0,2.0,73,0.00,,,0.00,Weather View 32 v70,2013-02-18 03:47:00,
2013-02-17 22:52:00,23.6,15.3,30.13,SW,225,0.0,2.0,70,0.00,,,0.00,Weather View 32 v70,2013-02-18 03:52:00,
2013-02-17 22:57:00,23.6,15.9,30.13,SW,225,0.0,2.0,72,0.00,,,0.00,Weather View 32 v70,2013-02-18 03:57:00,
2013-02-17 23:02:00,23.6,15.3,30.12,SW,224,0.0,2.0,70,0.00,,,0.00,Weather View 32 v70,2013-02-18 04:02:00,
2013-02-17 23:07:00,23.6,15.9,30.12,SW,224,0.0,2.0,72,0.00,,,0.00,Weather View 32 v70,2013-02-18 04:07:00,
2013-02-17 23:12:00,23.5,15.2,30.12,SW,224,0.0,2.0,70,0.00,,,0.00,Weather View 32 v70,2013-02-18 04:12:00,
2013-02-17 23:17:00,23.4,16.0,30.12,SW,224,0.0,2.0,73,0.00,,,0.00,Weather View 32 v70,2013-02-18 04:17:00,
2013-02-17 23:22:00,23.3,16.2,30.12,SW,224,0.0,2.0,74,0.00,,,0.00,Weather View 32 v70,2013-02-18 04:22:00,
2013-02-17 23:27:00,23.2,15.8,30.13,SW,224,0.0,2.0,73,0.00,,,0.00,Weather View 32 v70,2013-02-18 04:27:00,
2013-02-17 23:32:00,23.1,15.4,30.13,SW,223,1.0,2.0,72,0.00,,,0.00,Weather View 32 v70,2013-02-18 04:32:00,
2013-02-17 23:37:00,23.2,16.1,30.13,SSW,210,0.0,2.0,74,0.00,,,0.00,Weather View 32 v70,2013-02-18 04:37:00,
2013-02-17 23:42:00,23.2,14.9,30.13,SSW,210,0.0,2.0,70,0.00,,,0.00,Weather View 32 v70,2013-02-18 04:42:00,
2013-02-17 23:47:00,23.4,16.3,30.12,SSW,209,0.0,2.0,74,0.00,,,0.00,Weather View 32 v70,2013-02-18 04:47:00,
2013-02-17 23:52:00,23.3,15.6,30.13,SSW,209,0.0,2.0,72,0.00,,,0.00,Weather View 32 v70,2013-02-18 04:52:00,
2013-02-17 23:58:00,23.3,15.6,30.13,SSW,209,0.0,2.0,72,0.00,,,0.00,Weather View 32 v70,2013-02-18 04:58:00,